Regional Weather Roundup
Issued by NWS

Home | Current Version | Previous Version | Graphics & Text | Print | Product List | Glossary On
Versions: 1 2 3 4 5 6 7 8 9 10 11 12 13 14 15 16 17 18 19 20 21 22 23 24 25 26 27 28 29 30 31 32 33 34 35 36 37 38 39 40 41 42 43 44 45 46 47 48 49 50
000
ASUS43 KOAX 161502
RWRNE

WEATHER ROUNDUP FOR NEBRASKA
NATIONAL WEATHER SERVICE OMAHA NE
900 AM CST TUE JAN 16 2018

NOTES: SATELLITE DATA IS BEING USED TO AUGMENT CLOUD COVER ABOVE
       12000 FEET.
       "FAIR" INDICATES FEW OR NO CLOUDS BELOW 12,000 FEET WITH NO
       SIGNIFICANT WEATHER AND/OR OBSTRUCTIONS TO VISIBILITY.


NEZ001>004-019>022-054>056-161600-
NEBRASKA PANHANDLE

CITY           SKY/WX    TMP DP  RH WIND       PRES   REMARKS
SCOTTSBLUFF    CLEAR     -9 -14  78 CALM      30.53F
ALLIANCE       CLEAR    -16 -19  87 CALM      30.52F
CHADRON        CLEAR    -12 -18  74 CALM      30.56F
KIMBALL        PTCLDY     3  -3  75 W9        30.46S WCI -12
SIDNEY         CLEAR     -5 -10  79 W5        30.51F WCI -16
$$

NEZ057>060-069>072-079>082-161600-
SOUTHWEST NEBRASKA

CITY           SKY/WX    TMP DP  RH WIND       PRES   REMARKS
NORTH PLATTE   CLEAR     -2 -12  62 NW8       30.67S WCI -17
IMPERIAL       CLEAR     -2  -8  76 NW6       30.63S WCI -14
LEXINGTON      CLEAR     -2 -10  68 NW8       30.70S WCI -17
MCCOOK         CLEAR     -1 -10  65 W8        30.70F WCI -15
$$

NEZ005>010-023>029-035>040-094-161600-
NORTH CENTRAL NEBRASKA

CITY           SKY/WX    TMP DP  RH WIND       PRES   REMARKS
VALENTINE      CLEAR     -7 -14  71 W6        30.67S WCI -20
AINSWORTH      CLEAR     -7 -13  76 W7        30.66S WCI -22
BROKEN BOW     CLEAR     -6 -14  68 CALM      30.68S
ORD            CLOUDY    -5 -12  72 NW13      30.71F WCI -24
THEDFORD       CLEAR     -6 -13  73 CALM      30.65S
$$

NEZ041-046>049-061>064-073>077-083>087-161600-
SOUTH CENTRAL NEBRASKA

CITY           SKY/WX    TMP DP  RH WIND       PRES   REMARKS
GRAND ISLAND   CLOUDY     1  -2  87 N10       30.73R FOG     WCI -15
AURORA         CLOUDY     2  -3  78 N17G23    30.73R WCI -18
HASTINGS       CLOUDY     1  -4  79 N20       30.72S WCI -20
HEBRON         CLOUDY     0  -5  78 N5        30.77R WCI -10
HOLDREGE       CLOUDY    -2  -8  78 N8        30.70S WCI -17
KEARNEY        CLOUDY    -5 -12  72 N10       30.73S WCI -23
YORK           MOCLDY     1   0  92 N15       30.72F WCI -18
$$

NEZ011>018-030>034-042>045-161600-
NORTHEAST NEBRASKA

CITY           SKY/WX    TMP DP  RH WIND       PRES   REMARKS
NORFOLK        CLEAR     -1  -6  79 NW13      30.71F WCI -19
ALBION         CLEAR      0  -5  79 NW15G21   30.71F WCI -20
BLAIR          CLOUDY    -1  -6  76 NW15      30.73R WCI -20
COLUMBUS       CLOUDY     1  -4  79 NW10      30.75S WCI -15
FREMONT        CLOUDY     0  -6  76 NW14      30.76S WCI -19
TEKAMAH        CLOUDY    -1  -8  72 NW18G24   30.78R WCI -22
WAYNE          CLOUDY    -3  -9  73 NW14G20   30.74S WCI -22
$$

NEZ050>053-065>068-078-088>093-161600-
SOUTHEAST NEBRASKA

CITY           SKY/WX    TMP DP  RH WIND       PRES   REMARKS
LINCOLN        CLOUDY     1  -6  72 N15G23    30.78R WCI -18
OMAHA EPPLEY   FLURRIES   0  -7  72 NW16      30.77R WCI -20
BEATRICE       CLOUDY     2  -4  77 N14       30.75R WCI -16
FALLS CITY     SUNNY     -1  -9  68 NW16G24   30.76R WCI -21
NEBRASKA CITY  PTSUNNY   -2  -7  79 N9        30.75R WCI -17
PLATTSMOUTH    CLOUDY    -1  -6  79 NW10      30.74R WCI -17
$$

NEZ044-045-051>053-067-161600-
OMAHA AREA

CITY           SKY/WX    TMP DP  RH WIND       PRES   REMARKS
OMAHA EPPLEY   FLURRIES   0  -7  72 NW16      30.77R WCI -20
BLAIR          CLOUDY    -1  -6  76 NW15      30.73R WCI -20
FREMONT        CLOUDY     0  -6  76 NW14      30.76S WCI -19
PLATTSMOUTH    CLOUDY    -1  -6  79 NW10      30.74R WCI -17
WAHOO          CLOUDY     1  -5  74 MISG      30.76R
$$




USA.gov is the U.S. government's official web portal to all federal, state and local government web resources and services.